Falfurrias, TX

5:48 AM CST on November 13, 2019 (GMT -0600)
Falfurrias

Weather History for KBKS - September, 2019

Change the Weather History Date:

Friday, September 20, 2019

  Actual Average (WUND) Record (WUND)
Temperature  
Mean Temperature 87 °F -  
Max Temperature 96 °F - - (-1)
Min Temperature 78 °F - - (-1)
Cooling Degree Days 22    
Growing Degree Days 37 (Base 50)    
Moisture  
Dew Point 75 °F    
Average Humidity 69    
Maximum Humidity 88    
Minimum Humidity 46    
Precipitation  
Precipitation 0.00 in - - ()
Sea Level Pressure  
Sea Level Pressure 29.90 in    
Wind  
Wind Speed 10 mph ()    
Max Wind Speed 20 mph    
Max Gust Speed 25 mph    
Visibility 10.0 miles    
Events      
Averages and records for this station are not official NWS values.
T = Trace of Precipitation, MM = Missing Value Source: Averaged Metar Reports

Daily Weather History Graph

Daily Weather History Graph

Search for Another Location

Airport or City:

Astronomy

Sep. 20, 2019 Rise Set
Actual Time 7:20 AM CDT 7:31 PM CDT
Civil Twilight 6:56 AM CDT 7:54 PM CDT
Nautical Twilight 6:29 AM CDT 8:21 PM CDT
Astronomical Twilight 6:02 AM CDT 8:49 PM CDT
Moon 11:53 PM CDT (9/20) 12:56 PM CDT (9/20)
Length of Visible Light 12h 57m
Length of Day
12h 11m
Waning Gibbous, 65% of the Moon is Illuminated
Sep 20
Waning Gibbous
Sep 21
Last Quarter
Sep 28
New
Oct 5
First Quarter
Oct 13
Full

Hourly Weather History & Observations

Time (CDT) Temp. Heat Index Dew Point Humidity Pressure Visibility Wind Dir Wind Speed Gust Speed Precip Events Conditions
12:15 AM 83.5 °F 92.2 °F 76.5 °F 79% 29.86 in 10.0 mi SSE 10.4 mph - N/A   Clear
12:35 AM 83.3 °F 92.1 °F 76.6 °F 80% 29.86 in 10.0 mi SSE 9.2 mph - N/A   Clear
12:55 AM 83.3 °F 92.1 °F 76.6 °F 80% 29.86 in 10.0 mi SE 9.2 mph - N/A   Clear
1:15 AM 82.8 °F 91.3 °F 76.6 °F 82% 29.87 in 10.0 mi SE 9.2 mph - N/A   Clear
1:35 AM 82.6 °F 90.8 °F 76.5 °F 82% 29.87 in 10.0 mi SSE 9.2 mph - N/A   Clear
1:55 AM 82.4 °F 90.3 °F 76.5 °F 82% 29.87 in 10.0 mi SE 8.1 mph - N/A   Clear
2:15 AM 82.0 °F 89.7 °F 76.5 °F 83% 29.87 in 10.0 mi SSE 9.2 mph - N/A   Clear
2:35 AM 81.9 °F 89.2 °F 76.3 °F 83% 29.87 in 10.0 mi SE 8.1 mph - N/A   Clear
2:55 AM 81.5 °F 88.5 °F 76.3 °F 84% 29.87 in 10.0 mi SE 9.2 mph - N/A   Clear
3:15 AM 81.5 °F 88.5 °F 76.1 °F 84% 29.86 in 10.0 mi SE 10.4 mph - N/A   Clear
3:35 AM 81.5 °F 88.5 °F 76.1 °F 84% 29.86 in 10.0 mi SE 9.2 mph - N/A   Clear
3:55 AM 81.1 °F 87.6 °F 75.7 °F 84% 29.85 in 10.0 mi SE 11.5 mph - N/A   Clear
4:15 AM 81.0 °F 87.1 °F 75.6 °F 84% 29.85 in 10.0 mi SE 11.5 mph - N/A   Clear
4:35 AM 81.0 °F 86.9 °F 75.4 °F 83% 29.86 in 10.0 mi SE 8.1 mph - N/A   Clear
4:55 AM 80.8 °F 86.7 °F 75.4 °F 84% 29.86 in 10.0 mi ESE 8.1 mph - N/A   Clear
5:15 AM 80.8 °F 86.7 °F 75.4 °F 84% 29.86 in 10.0 mi SE 9.2 mph - N/A   Clear
5:35 AM 80.6 °F 86.2 °F 75.4 °F 84% 29.87 in 10.0 mi SE 8.1 mph - N/A   Clear
5:55 AM 80.6 °F 86.2 °F 75.2 °F 84% 29.88 in 10.0 mi ESE 6.9 mph - N/A   Clear
6:15 AM 79.9 °F - 75.2 °F 86% 29.88 in 10.0 mi ESE 5.8 mph - N/A   Clear
6:35 AM 79.5 °F - 75.0 °F 86% 29.88 in 10.0 mi ESE 4.6 mph - N/A   Clear
6:55 AM 79.0 °F - 74.8 °F 87% 29.89 in 10.0 mi ESE 5.8 mph - N/A   Clear
7:15 AM 78.8 °F - 74.7 °F 87% 29.90 in 10.0 mi ESE 3.5 mph - N/A   Clear
7:35 AM 78.4 °F - 74.5 °F 88% 29.90 in 10.0 mi ESE 4.6 mph - N/A   Clear
7:55 AM 78.8 °F - 74.8 °F 88% 29.90 in 10.0 mi ESE 4.6 mph - N/A   Clear
8:15 AM 80.2 °F 85.5 °F 75.2 °F 85% 29.91 in 10.0 mi SE 5.8 mph - N/A   Clear
8:35 AM 82.2 °F 89.3 °F 75.4 °F 80% 29.91 in 10.0 mi SE 6.9 mph - N/A   Clear
8:55 AM 83.8 °F 92.1 °F 75.7 °F 76% 29.91 in 10.0 mi SSE 9.2 mph - N/A   Clear
9:15 AM 85.5 °F 94.6 °F 75.6 °F 72% 29.92 in 10.0 mi SSE 15.0 mph 19.6 mph N/A   Clear
9:35 AM 86.5 °F 95.9 °F 75.2 °F 69% 29.92 in 10.0 mi SSE 12.7 mph 21.9 mph N/A   Clear
9:55 AM 87.8 °F 98.1 °F 75.6 °F 67% 29.93 in 10.0 mi SSE 15.0 mph - N/A   Clear
10:15 AM 88.7 °F 98.7 °F 75.2 °F 64% 29.93 in 10.0 mi SSE 16.1 mph 19.6 mph N/A   Clear
10:35 AM 89.6 °F 99.8 °F 75.2 °F 62% 29.93 in 10.0 mi SE 17.3 mph 20.7 mph N/A   Scattered Clouds
10:55 AM 90.5 °F 100.9 °F 74.7 °F 60% 29.93 in 10.0 mi SSE 17.3 mph 25.3 mph N/A   Scattered Clouds
11:10 AM 90.5 °F 101.5 °F 75.2 °F 61% 29.93 in 10.0 mi SSE 11.5 mph 17.3 mph N/A   Scattered Clouds
11:35 AM 90.5 °F 100.3 °F 74.5 °F 59% 29.93 in 10.0 mi SSE 16.1 mph 20.7 mph N/A   Scattered Clouds
11:55 AM 92.3 °F 102.2 °F 74.1 °F 55% 29.93 in 10.0 mi SE 16.1 mph 20.7 mph N/A   Scattered Clouds
12:15 PM 92.7 °F 101.7 °F 73.4 °F 53% 29.93 in 10.0 mi SSE 12.7 mph 20.7 mph N/A   Scattered Clouds
12:35 PM 93.9 °F 103.4 °F 73.4 °F 51% 29.92 in 10.0 mi SSE 16.1 mph 21.9 mph N/A   Scattered Clouds
12:55 PM 94.5 °F 103.3 °F 72.3 °F 49% 29.91 in 10.0 mi SSE 19.6 mph 24.2 mph N/A   Scattered Clouds
1:15 PM 95.5 °F 105.1 °F 73.0 °F 48% 29.91 in 10.0 mi SSE 15.0 mph 23.0 mph N/A   Scattered Clouds
1:35 PM 95.0 °F 102.5 °F 71.4 °F 46% 29.90 in 10.0 mi SE 16.1 mph 20.7 mph N/A   Clear
1:55 PM 96.4 °F 105.7 °F 72.3 °F 46% 29.89 in 10.0 mi SE 11.5 mph 20.7 mph N/A   Scattered Clouds
2:15 PM 94.3 °F 107.1 °F 75.9 °F 55% 29.88 in 10.0 mi SE 12.7 mph 19.6 mph N/A   Scattered Clouds
2:35 PM 94.6 °F 105.1 °F 74.1 °F 51% 29.88 in 10.0 mi ESE 16.1 mph 23.0 mph N/A   Scattered Clouds
2:55 PM 93.9 °F 104.7 °F 74.3 °F 53% 29.88 in 10.0 mi SE 15.0 mph 18.4 mph N/A   Clear
3:15 PM 87.1 °F 95.9 °F 74.3 °F 66% 29.88 in 7.0 mi SE 12.7 mph 18.4 mph N/A   Mostly Cloudy
3:35 PM 91.9 °F 102.6 °F 74.8 °F 57% 29.88 in 10.0 mi SE 17.3 mph 25.3 mph N/A   Mostly Cloudy
3:55 PM 95.4 °F 106.8 °F 74.5 °F 51% 29.87 in 10.0 mi SSE 18.4 mph 23.0 mph N/A   Scattered Clouds
4:15 PM 94.6 °F 105.8 °F 74.7 °F 52% 29.86 in 10.0 mi SE 17.3 mph 21.9 mph N/A   Scattered Clouds
4:35 PM 93.2 °F 102.4 °F 73.4 °F 52% 29.86 in 10.0 mi SE 15.0 mph 24.2 mph N/A   Scattered Clouds
4:55 PM 93.4 °F 102.8 °F 73.2 °F 52% 29.86 in 10.0 mi SE 15.0 mph 23.0 mph N/A   Scattered Clouds
5:15 PM 94.3 °F 103.5 °F 73.2 °F 50% 29.86 in 10.0 mi ESE 16.1 mph 21.9 mph N/A   Scattered Clouds
5:35 PM 93.4 °F 103.4 °F 73.8 °F 53% 29.86 in 10.0 mi ESE 16.1 mph 25.3 mph N/A   Mostly Cloudy
5:55 PM 93.2 °F 103.0 °F 73.9 °F 53% 29.86 in 10.0 mi SE 15.0 mph 23.0 mph N/A   Mostly Cloudy
6:15 PM 92.5 °F 101.9 °F 73.4 °F 54% 29.87 in 10.0 mi SE 12.7 mph 19.6 mph N/A   Scattered Clouds
6:35 PM 91.6 °F 99.9 °F 73.0 °F 54% 29.87 in 10.0 mi ESE 16.1 mph 24.2 mph N/A   Scattered Clouds
6:55 PM 90.7 °F 98.5 °F 72.5 °F 55% 29.88 in 10.0 mi SE 9.2 mph 17.3 mph N/A   Clear
7:15 PM 89.8 °F 95.1 °F 70.0 °F 52% 29.88 in 10.0 mi SE 16.1 mph 19.6 mph N/A   Clear
7:35 PM 88.7 °F 94.3 °F 70.9 °F 55% 29.89 in 10.0 mi ESE 11.5 mph 17.3 mph N/A   Clear
7:55 PM 87.6 °F 95.7 °F 73.4 °F 63% 29.90 in 10.0 mi ESE 10.4 mph 17.3 mph N/A   Clear
8:15 PM 86.9 °F 94.5 °F 73.4 °F 64% 29.91 in 10.0 mi ESE 10.4 mph - N/A   Clear
8:35 PM 86.0 °F 93.8 °F 73.9 °F 67% 29.91 in 10.0 mi ESE 8.1 mph - N/A   Clear
8:55 PM 85.3 °F 94.2 °F 75.2 °F 72% 29.92 in 10.0 mi ESE 10.4 mph - N/A   Clear
9:15 PM 85.1 °F 94.1 °F 75.7 °F 73% 29.93 in 10.0 mi ESE 10.4 mph - N/A   Clear
9:35 PM 84.7 °F 93.6 °F 75.6 °F 74% 29.93 in 10.0 mi SE 10.4 mph - N/A   Clear
9:55 PM 84.6 °F 92.8 °F 75.2 °F 73% 29.94 in 10.0 mi SE 10.4 mph 16.1 mph N/A   Clear
10:15 PM 84.2 °F 92.3 °F 75.2 °F 74% 29.95 in 10.0 mi SE 6.9 mph - N/A   Clear
10:35 PM 83.8 °F 92.1 °F 75.4 °F 76% 29.96 in 10.0 mi SE 6.9 mph - N/A   Clear
10:55 PM 83.3 °F 91.1 °F 75.4 °F 77% 29.96 in 10.0 mi ESE 4.6 mph - N/A   Scattered Clouds
11:15 PM 82.6 °F 89.9 °F 75.6 °F 79% 29.97 in 10.0 mi SE 5.8 mph - N/A   Scattered Clouds
11:35 PM 82.8 °F 90.7 °F 76.1 °F 80% 29.98 in 10.0 mi SE 4.6 mph - N/A   Clear
11:55 PM 82.6 °F 90.5 °F 76.1 °F 81% 29.98 in 10.0 mi ESE 4.6 mph - N/A   Scattered Clouds